| time (UTC) | temp F | wind direction | speed MPH | gust MPH | rain 1hr in | rain 24hr in | rain mn in | humidity % | barometer mb |
| 20260901191553 | 75 | 130 | 5.0 | 16.0 | 0.00 | 0.00 | 0.00 | 21 | 1015.0 |
| 20260901190054 | 74 | 183 | 7.0 | 16.0 | 0.00 | 0.00 | 0.00 | 25 | 1015.0 |
| 20260901184551 | 74 | 202 | 5.0 | 15.0 | 0.00 | 0.00 | 0.00 | 22 | 1014.9 |
| 20260901183055 | 73 | 190 | 9.0 | 20.0 | 0.00 | 0.00 | 0.00 | 21 | 1015.0 |
| 20260901181559 | 73 | 196 | 6.0 | 19.0 | 0.00 | 0.00 | 0.00 | 22 | 1015.0 |
| 20260901180050 | 73 | 138 | 6.0 | 15.0 | 0.00 | 0.00 | 0.00 | 20 | 1015.3 |
| 20260901174558 | 72 | 167 | 6.0 | 14.0 | 0.00 | 0.00 | 0.00 | 22 | 1015.2 |
| 20260901173101 | 72 | 179 | 6.0 | 14.0 | 0.00 | 0.00 | 0.00 | 23 | 1015.2 |
| 20260901171559 | 71 | 140 | 4.0 | 12.0 | 0.00 | 0.00 | 0.00 | 23 | 1015.2 |
| 20260901170107 | 71 | 167 | 4.0 | 13.0 | 0.00 | 0.00 | 0.00 | 25 | 1015.2 |
| 20260901164554 | 70 | 167 | 5.0 | 12.0 | 0.00 | 0.00 | 0.00 | 26 | 1015.3 |
| 20260901163059 | 70 | 107 | 3.0 | 11.0 | 0.00 | 0.00 | 0.00 | 29 | 1015.3 |
| 20260901161553 | 69 | 173 | 2.0 | 11.0 | 0.00 | 0.00 | 0.00 | 31 | 1015.3 |
| 20260901160047 | 68 | 172 | 2.0 | 11.0 | 0.00 | 0.00 | 0.00 | 31 | 1015.4 |
| 20260901154546 | 67 | 0 | 2.0 | 8.0 | 0.00 | 0.00 | 0.00 | 33 | 1015.4 |
| 20260901153047 | 66 | 99 | 1.0 | 6.0 | 0.00 | 0.00 | 0.00 | 33 | 1015.4 |
| 20260901151605 | 65 | 0 | 0.0 | 10.0 | 0.00 | 0.00 | 0.00 | 34 | 1015.5 |
| 20260901150055 | 64 | 130 | 2.0 | 8.0 | 0.00 | 0.00 | 0.00 | 34 | 1015.3 |
| 20260901144550 | 63 | 189 | 1.0 | 6.0 | 0.00 | 0.00 | 0.00 | 34 | 1015.3 |
| 20260901143102 | 62 | 135 | 0.0 | 12.0 | 0.00 | 0.00 | 0.00 | 36 | 1015.2 |
| 20260901141547 | 63 | 153 | 7.0 | 14.0 | 0.00 | 0.00 | 0.00 | 32 | 1015.1 |
| 20260901140104 | 62 | 140 | 4.0 | 11.0 | 0.00 | 0.00 | 0.00 | 33 | 1015.1 |
| 20260901134551 | 62 | 0 | 0.0 | 8.0 | 0.00 | 0.00 | 0.00 | 34 | 1015.0 |
| 20260901133058 | 62 | 0 | 1.0 | 8.0 | 0.00 | 0.00 | 0.00 | 32 | 1014.9 |
| 20260901131548 | 58 | 194 | 2.0 | 6.0 | 0.00 | 0.00 | 0.00 | 36 | 1015.0 |
| 20260901130052 | 60 | 197 | 0.0 | 4.0 | 0.00 | 0.00 | 0.00 | 32 | 1014.6 |
| 20260901124552 | 59 | 102 | 1.0 | 4.0 | 0.00 | 0.00 | 0.00 | 34 | 1014.6 |
| 20260901123105 | 59 | 0 | 0.0 | 1.0 | 0.00 | 0.00 | 0.00 | 37 | 1014.6 |
| 20260901121606 | 60 | 0 | 1.0 | 7.0 | 0.00 | 0.00 | 0.00 | 38 | 1014.6 |
| 20260901120057 | 59 | 0 | 0.0 | 1.0 | 0.00 | 0.00 | 0.00 | 38 | 1014.6 |
| 20260901114547 | 62 | 0 | 0.0 | 0.0 | 0.00 | 0.00 | 0.00 | 36 | 1014.5 |
| 20260901113049 | 63 | 0 | 0.0 | 5.0 | 0.00 | 0.00 | 0.00 | 35 | 1014.2 |
| 20260901111559 | 61 | 0 | 1.0 | 4.0 | 0.00 | 0.00 | 0.00 | 35 | 1014.3 |
| 20260901110058 | 61 | 0 | 0.0 | 1.0 | 0.00 | 0.00 | 0.00 | 38 | 1014.4 |
| 20260901104557 | 61 | 0 | 0.0 | 3.0 | 0.00 | 0.00 | 0.00 | 35 | 1014.4 |
| 20260901103105 | 62 | 125 | 0.0 | 4.0 | 0.00 | 0.00 | 0.00 | 37 | 1014.3 |
| 20260901101556 | 62 | 0 | 0.0 | 2.0 | 0.00 | 0.00 | 0.00 | 35 | 1014.3 |
| 20260901094559 | 62 | 0 | 0.0 | 2.0 | 0.00 | 0.00 | 0.00 | 34 | 1014.5 |
| 20260901093104 | 62 | 0 | 0.0 | 2.0 | 0.00 | 0.00 | 0.00 | 36 | 1014.4 |
| 20260901091612 | 61 | 0 | 0.0 | 2.0 | 0.00 | 0.00 | 0.00 | 39 | 1014.4 |
| 20260901090100 | 62 | 0 | 0.0 | 4.0 | 0.00 | 0.00 | 0.00 | 37 | 1014.1 |
| 20260901084557 | 62 | 0 | 0.0 | 2.0 | 0.00 | 0.00 | 0.00 | 33 | 1014.2 |
| 20260901083057 | 62 | 0 | 0.0 | 0.0 | 0.00 | 0.00 | 0.00 | 42 | 1014.3 |
| 20260901081549 | 61 | 0 | 0.0 | 0.0 | 0.00 | 0.00 | 0.00 | 39 | 1014.5 |
| 20260901080057 | 61 | 0 | 0.0 | 3.0 | 0.00 | 0.00 | 0.00 | 43 | 1014.4 |
| 20260901074549 | 61 | 105 | 0.0 | 3.0 | 0.00 | 0.00 | 0.00 | 44 | 1014.5 |
| 20260901073059 | 62 | 0 | 0.0 | 3.0 | 0.00 | 0.00 | 0.00 | 41 | 1014.4 |
| 20260901071554 | 62 | 0 | 0.0 | 4.0 | 0.00 | 0.00 | 0.00 | 41 | 1014.3 |
| 20260901070057 | 63 | 0 | 0.0 | 2.0 | 0.00 | 0.00 | 0.00 | 40 | 1014.2 |
| 20260901064600 | 63 | 11 | 1.0 | 4.0 | 0.00 | 0.00 | 0.00 | 41 | 1014.3 |
| 20260901063102 | 64 | 0 | 0.0 | 5.0 | 0.00 | 0.00 | 0.00 | 39 | 1014.5 |
| 20260901061552 | 66 | 0 | 0.0 | 0.0 | 0.00 | 0.00 | 0.00 | 34 | 1014.4 |
| 20260901060059 | 67 | 0 | 0.0 | 3.0 | 0.00 | 0.00 | 0.00 | 32 | 1014.3 |
| 20260901054554 | 66 | 0 | 0.0 | 4.0 | 0.00 | 0.00 | 0.00 | 36 | 1014.5 |
| 20260901053119 | 66 | 0 | 0.0 | 9.0 | 0.00 | 0.00 | 0.00 | 38 | 1014.6 |
| 20260901051606 | 66 | 27 | 2.0 | 7.0 | 0.00 | 0.00 | 0.00 | 39 | 1014.6 |
| 20260901050059 | 67 | 108 | 0.0 | 4.0 | 0.00 | 0.00 | 0.00 | 38 | 1014.6 |
| 20260901044615 | 67 | 0 | 0.0 | 0.0 | 0.00 | 0.00 | 0.00 | 36 | 1014.6 |
| 20260901043102 | 67 | 0 | 0.0 | 2.0 | 0.00 | 0.00 | 0.00 | 37 | 1014.5 |
| 20260901041547 | 68 | 0 | 0.0 | 3.0 | 0.00 | 0.00 | 0.00 | 37 | 1014.5 |
| 20260901040058 | 68 | 0 | 1.0 | 6.0 | 0.00 | 0.00 | 0.00 | 37 | 1014.4 |
| 20260901034551 | 69 | 0 | 0.0 | 1.0 | 0.00 | 0.00 | 0.00 | 37 | 1014.1 |
| 20260901033048 | 70 | 0 | 0.0 | 2.0 | 0.00 | 0.00 | 0.00 | 36 | 1014.0 |
| 20260901031601 | 72 | 0 | 0.0 | 8.0 | 0.00 | 0.00 | 0.00 | 34 | 1013.9 |
| 20260901030057 | 73 | 326 | 1.0 | 6.0 | 0.00 | 0.00 | 0.00 | 31 | 1013.9 |
| 20260901024551 | 73 | 94 | 2.0 | 6.0 | 0.00 | 0.00 | 0.00 | 32 | 1013.8 |
| 20260901023052 | 74 | 206 | 4.0 | 16.0 | 0.00 | 0.00 | 0.00 | 30 | 1013.7 |
| 20260901021600 | 74 | 238 | 4.0 | 16.0 | 0.00 | 0.00 | 0.00 | 32 | 1013.5 |
| 20260901020048 | 75 | 296 | 7.0 | 16.0 | 0.00 | 0.00 | 0.00 | 33 | 1013.4 |
| 20260901014552 | 76 | 315 | 9.0 | 15.0 | 0.00 | 0.00 | 0.00 | 32 | 1013.2 |
| 20260901013053 | 78 | 277 | 3.0 | 11.0 | 0.00 | 0.00 | 0.00 | 31 | 1013.2 |
| 20260901011605 | 78 | 236 | 6.0 | 15.0 | 0.00 | 0.00 | 0.00 | 31 | 1013.1 |
| 20260901010049 | 79 | 213 | 6.0 | 12.0 | 0.00 | 0.00 | 0.00 | 31 | 1013.0 |
| 20260901004604 | 80 | 244 | 9.0 | 15.0 | 0.00 | 0.00 | 0.00 | 31 | 1013.0 |
| 20260901003052 | 81 | 207 | 4.0 | 13.0 | 0.00 | 0.00 | 0.00 | 28 | 1013.1 |
| 20260901001552 | 81 | 171 | 5.0 | 12.0 | 0.00 | 0.00 | 0.00 | 31 | 1013.1 |
| 20260901000059 | 81 | 221 | 6.0 | 19.0 | 0.00 | 0.00 | 0.00 | 30 | 1013.1 |
| 20260831234557 | 82 | 271 | 7.0 | 14.0 | 0.00 | 0.00 | 0.00 | 30 | 1013.0 |
| 20260831233053 | 82 | 216 | 8.0 | 17.0 | 0.00 | 0.00 | 0.00 | 30 | 1013.0 |
| 20260831231606 | 81 | 275 | 7.0 | 17.0 | 0.00 | 0.00 | 0.00 | 29 | 1013.1 |
| 20260831230101 | 82 | 263 | 6.0 | 17.0 | 0.00 | 0.00 | 0.00 | 26 | 1013.3 |
| 20260831224549 | 83 | 259 | 3.0 | 15.0 | 0.00 | 0.00 | 0.00 | 26 | 1013.2 |
| 20260831223104 | 83 | 244 | 4.0 | 14.0 | 0.00 | 0.00 | 0.00 | 24 | 1013.4 |
| 20260831221551 | 82 | 331 | 5.0 | 14.0 | 0.00 | 0.00 | 0.00 | 24 | 1013.7 |
| 20260831220051 | 82 | 273 | 5.0 | 16.0 | 0.00 | 0.00 | 0.00 | 24 | 1013.8 |
| 20260831214619 | 83 | 266 | 6.0 | 12.0 | 0.00 | 0.00 | 0.00 | 24 | 1014.0 |
| 20260831213105 | 83 | 267 | 3.0 | 14.0 | 0.00 | 0.00 | 0.00 | 24 | 1014.1 |
| 20260831211557 | 83 | 248 | 6.0 | 10.0 | 0.00 | 0.00 | 0.00 | 22 | 1014.3 |
| 20260831210052 | 84 | 275 | 4.0 | 11.0 | 0.00 | 0.00 | 0.00 | 23 | 1014.3 |
| 20260831204604 | 83 | 205 | 4.0 | 9.0 | 0.00 | 0.00 | 0.00 | 23 | 1014.5 |
| 20260831203059 | 83 | 248 | 2.0 | 8.0 | 0.00 | 0.00 | 0.00 | 22 | 1014.5 |
| 20260831201552 | 83 | 240 | 3.0 | 8.0 | 0.00 | 0.00 | 0.00 | 22 | 1014.7 |
| 20260831200053 | 83 | 352 | 1.0 | 4.0 | 0.00 | 0.00 | 0.00 | 21 | 1014.9 |
| 20260831194549 | 81 | 194 | 0.0 | 5.0 | 0.00 | 0.00 | 0.00 | 20 | 1015.1 |
| 20260831193053 | 80 | 24 | 1.0 | 4.0 | 0.00 | 0.00 | 0.00 | 23 | 1015.4 |